Tacoma, WA

6:44 AM PST on February 06, 2016 (GMT -0800)
McChord Air Force Base

Weather History for KTCM - September, 2011

Change the Weather History Date:

Sunday, September 25, 2011

  Actual Average Record
Temperature  
Mean Temperature 58 °F -  
Max Temperature 66 °F 66 °F 86 °F (1991)
Min Temperature 50 °F 43 °F 32 °F (1972)
Degree Days  
Heating Degree Days 8    
Growing Degree Days 8 (Base 50)    
Moisture  
Dew Point 53 °F    
Average Humidity 79    
Maximum Humidity 94    
Minimum Humidity 58    
Precipitation  
Precipitation 0.21 in - - ()
Sea Level Pressure  
Sea Level Pressure 29.84 in    
Wind  
Wind Speed 10 mph (SSW)    
Max Wind Speed 25 mph    
Max Gust Speed 33 mph    
Visibility 9 miles    
Events Rain    
Averages and records for this station are not official NWS values.
T = Trace of Precipitation, MM = Missing Value Source: NWS Daily Summary

Daily Weather History Graph

Daily Weather History Graph

Search for Another Location

Airport or City:

Trip Planner

Search our weather history database for the weather conditions in past years. The results will help you decide how hot, cold, wet, or windy it might be!

Date:

Astronomy

Sep. 25, 2011 Rise Set
Actual Time 7:00 AM PDT 7:01 PM PDT
Civil Twilight 6:30 AM PDT 7:32 PM PDT
Nautical Twilight 5:54 AM PDT 8:07 PM PDT
Astronomical Twilight 5:17 AM PDT 8:44 PM PDT
Moon 4:48 AM PDT (9/25) 5:48 PM PDT (9/25)
Length of Visible Light 13h 02m
Length of Day
12h 01m
Waning Crescent, 4% of the Moon is Illuminated
Sep 25
Waning Crescent
Sep 27
New
Oct 3
First Quarter
Oct 11
Full
Oct 19
Last Quarter

Hourly Weather History & Observations

Time (PDT) Temp. Dew Point Humidity Pressure Visibility Wind Dir Wind Speed Gust Speed Precip Events Conditions
12:58 AM 57.9 °F 55.0 °F 90% 29.70 in 10.0 mi SSE 2.3 mph - N/A   Clear
1:58 AM 57.9 °F 56.1 °F 94% 29.68 in 10.0 mi ESE 3.5 mph - N/A   Clear
2:58 AM 58.6 °F 56.1 °F 91% 29.68 in 10.0 mi South 5.8 mph - N/A   Mostly Cloudy
3:44 AM 62.6 °F 55.4 °F 77% 29.67 in 10.0 mi WSW 17.3 mph 20.7 mph N/A Rain Light Rain
3:58 AM 61.7 °F 56.3 °F 82% 29.72 in 7.0 mi WSW 17.3 mph 25.3 mph 0.00 in Rain Light Rain
4:53 AM 57.2 °F 55.4 °F 94% 29.72 in 10.0 mi SSW 15.0 mph 23.0 mph N/A   Overcast
4:56 AM 57.2 °F 55.4 °F 94% 29.72 in 10.0 mi SSW 12.7 mph 23.0 mph N/A Rain Light Rain
4:58 AM 57.2 °F 55.4 °F 94% 29.75 in 10.0 mi SSW 11.5 mph 23.0 mph 0.11 in Rain Light Rain
5:59 AM 57.6 °F 55.0 °F 91% 29.77 in 10.0 mi South 5.8 mph - 0.02 in Rain Light Rain
6:00 AM 57.2 °F 55.4 °F 94% 29.73 in 10.0 mi South 4.6 mph - N/A   Overcast
6:58 AM 55.8 °F 53.6 °F 92% 29.79 in 10.0 mi SSE 6.9 mph - 0.00 in   Partly Cloudy
7:58 AM 56.8 °F 51.6 °F 83% 29.79 in 10.0 mi SE 5.8 mph - N/A   Mostly Cloudy
8:58 AM 56.8 °F 51.8 °F 83% 29.79 in 10.0 mi SSE 10.4 mph - N/A   Scattered Clouds
9:58 AM 62.6 °F 50.5 °F 65% 29.78 in 10.0 mi South 13.8 mph - N/A   Partly Cloudy
10:58 AM 65.8 °F 50.9 °F 58% 29.78 in 10.0 mi South 18.4 mph 26.5 mph N/A   Mostly Cloudy
11:58 AM 65.3 °F 50.4 °F 58% 29.82 in 10.0 mi South 25.3 mph 33.4 mph N/A   Overcast
12:58 PM 65.8 °F 52.9 °F 63% 29.85 in 10.0 mi SSW 20.7 mph 31.1 mph N/A   Mostly Cloudy
12:59 PM 64.4 °F 53.6 °F 68% 29.82 in 10.0 mi SSW 20.7 mph 31.1 mph N/A Rain Light Rain
1:07 PM 62.6 °F 53.6 °F 72% 29.82 in 10.0 mi SSW 23.0 mph 33.4 mph N/A   Mostly Cloudy
1:13 PM 62.6 °F 53.6 °F 72% 29.83 in 10.0 mi SW 16.1 mph 33.4 mph N/A Rain Rain
1:38 PM 59.0 °F 53.6 °F 82% 29.85 in 3.0 mi WSW 13.8 mph 27.6 mph N/A Rain Rain
1:45 PM 57.2 °F 53.6 °F 88% 29.85 in 6.0 mi SW 16.1 mph 25.3 mph N/A   Haze
1:47 PM 57.2 °F 53.6 °F 88% 29.85 in 6.0 mi SSW 15.0 mph 25.3 mph N/A   Haze
1:50 PM 57.2 °F 53.6 °F 88% 29.86 in 8.0 mi SSW 13.8 mph 20.7 mph N/A Rain Light Rain
1:58 PM 57.4 °F 53.8 °F 88% 29.90 in 8.0 mi SSW 15.0 mph - 0.08 in Rain Light Rain
2:00 PM 57.2 °F 53.6 °F 88% 29.87 in 10.0 mi SSW 13.8 mph - N/A   Overcast
2:58 PM 62.1 °F 54.7 °F 77% 29.91 in 10.0 mi SW 13.8 mph 19.6 mph 0.00 in   Scattered Clouds
3:58 PM 63.5 °F 52.7 °F 68% 29.94 in 10.0 mi SSW 10.4 mph 18.4 mph N/A   Mostly Cloudy
4:03 PM 64.4 °F 51.8 °F 64% 29.91 in 10.0 mi SW 11.5 mph 18.4 mph N/A   Mostly Cloudy
4:08 PM 64.4 °F 51.8 °F 64% 29.91 in 10.0 mi SW 11.5 mph - N/A   Mostly Cloudy
4:58 PM 64.2 °F 51.3 °F 63% 29.96 in 10.0 mi SSW 13.8 mph 19.6 mph N/A   Partly Cloudy
5:58 PM 63.3 °F 48.9 °F 59% 29.97 in 10.0 mi SW 11.5 mph - N/A   Clear
6:58 PM 61.5 °F 48.0 °F 61% 29.99 in 10.0 mi SSW 5.8 mph - N/A   Mostly Cloudy
7:58 PM 55.2 °F 47.8 °F 76% 30.00 in 10.0 mi South 3.5 mph - N/A   Scattered Clouds
8:58 PM 54.3 °F 48.4 °F 80% 30.02 in 10.0 mi South 3.5 mph - N/A   Partly Cloudy
9:58 PM 52.2 °F 48.6 °F 88% 30.02 in 10.0 mi Calm Calm - N/A   Mostly Cloudy
10:58 PM 50.9 °F 49.3 °F 94% 30.01 in 10.0 mi SSE 2.3 mph - N/A   Mostly Cloudy
11:58 PM 52.5 °F 49.6 °F 90% 30.00 in 10.0 mi Calm Calm - N/A   Mostly Cloudy